Kalaeloa, HI

11:58 PM HST on June 23, 2017 (GMT -1000)
Kalaeloa (John Rodgers Field)

Weather History for PHJR - January, 2013

Change the Weather History Date:

Wednesday, January 23, 2013

  Actual Average (PHHI) Record (PHHI)
Temperature  
Mean Temperature 72 °F -  
Max Temperature 79 °F 74 °F 82 °F (2002)
Min Temperature 66 °F 61 °F 55 °F (2014)
Cooling Degree Days 8    
Growing Degree Days 22 (Base 50)    
Moisture  
Dew Point 62 °F    
Average Humidity 70    
Maximum Humidity 84    
Minimum Humidity 57    
Precipitation  
Precipitation 0.00 in - - ()
Sea Level Pressure  
Sea Level Pressure 30.07 in    
Wind  
Wind Speed 3 mph (East)    
Max Wind Speed 10 mph    
Max Gust Speed 16 mph    
Visibility 10 miles    
Events      
Averages and records for this station are not official NWS values.
T = Trace of Precipitation, MM = Missing Value Source: NWS Daily Summary

Daily Weather History Graph

Daily Weather History Graph

Search for Another Location

Airport or City:

Trip Planner

Search our weather history database for the weather conditions in past years. The results will help you decide how hot, cold, wet, or windy it might be!

Date:

Astronomy

Jan. 23, 2013 Rise Set
Actual Time 7:11 AM HST 6:16 PM HST
Civil Twilight 6:48 AM HST 6:40 PM HST
Nautical Twilight 6:21 AM HST 7:07 PM HST
Astronomical Twilight 5:54 AM HST 7:34 PM HST
Moon 3:42 PM HST (1/23) 4:26 AM HST (1/23)
Length of Visible Light 11h 52m
Length of Day
11h 05m
Waxing Gibbous, 90% of the Moon is Illuminated
Jan 23
Waxing Gibbous
Jan 26
Full
Feb 3
Last Quarter
Feb 9
New
Feb 17
First Quarter

Hourly Weather History & Observations

Time (HST) Temp. Dew Point Humidity Pressure Visibility Wind Dir Wind Speed Gust Speed Precip Events Conditions
12:53 AM 70.0 °F 59.0 °F 68% 30.09 in 10.0 mi Calm Calm - N/A   Overcast
1:27 AM 71.6 °F 59.0 °F 64% 30.07 in 10.0 mi Variable 4.6 mph - N/A   Overcast
1:53 AM 71.1 °F 57.9 °F 63% 30.09 in 10.0 mi Calm Calm - N/A   Overcast
2:53 AM 70.0 °F 57.9 °F 65% 30.07 in 10.0 mi Calm Calm - N/A   Overcast
3:53 AM 70.0 °F 62.1 °F 76% 30.06 in 10.0 mi Variable 3.5 mph - N/A   Overcast
4:20 AM 69.8 °F 60.8 °F 73% 30.04 in 10.0 mi Variable 3.5 mph - N/A   Overcast
4:31 AM 69.8 °F 60.8 °F 73% 30.04 in 10.0 mi ENE 3.5 mph - N/A   Overcast
4:43 AM 68.0 °F 60.8 °F 78% 30.04 in 10.0 mi ENE 3.5 mph - N/A   Overcast
4:53 AM 68.0 °F 60.1 °F 76% 30.06 in 10.0 mi ENE 3.5 mph - N/A   Overcast
5:04 AM 68.0 °F 59.0 °F 73% 30.05 in 10.0 mi ENE 4.6 mph - N/A   Overcast
5:22 AM 68.0 °F 59.0 °F 73% 30.05 in 10.0 mi ENE 3.5 mph - N/A   Mostly Cloudy
5:53 AM 69.1 °F 59.0 °F 70% 30.08 in 10.0 mi ENE 3.5 mph - N/A   Mostly Cloudy
6:53 AM 66.0 °F 57.9 °F 75% 30.09 in 10.0 mi Calm Calm - N/A   Mostly Cloudy
7:53 AM 68.0 °F 57.9 °F 70% 30.10 in 10.0 mi Calm Calm - N/A   Clear
8:17 AM 71.6 °F 60.8 °F 69% 30.08 in 10.0 mi Variable 4.6 mph - N/A   Partly Cloudy
8:53 AM 72.0 °F 61.0 °F 68% 30.11 in 10.0 mi East 5.8 mph - N/A   Overcast
9:01 AM 71.6 °F 60.8 °F 69% 30.09 in 10.0 mi Variable 4.6 mph - N/A   Overcast
9:31 AM 73.4 °F 62.6 °F 69% 30.10 in 10.0 mi Variable 5.8 mph - N/A   Mostly Cloudy
9:53 AM 73.0 °F 63.0 °F 71% 30.12 in 10.0 mi ENE 8.1 mph - N/A   Overcast
10:53 AM 77.0 °F 63.0 °F 62% 30.11 in 10.0 mi Variable 5.8 mph - N/A   Scattered Clouds
11:41 AM 78.8 °F 62.6 °F 57% 30.07 in 10.0 mi ENE 8.1 mph - N/A   Mostly Cloudy
11:51 AM 78.8 °F 62.6 °F 57% 30.07 in 10.0 mi East 8.1 mph - N/A   Mostly Cloudy
11:53 AM 77.0 °F 63.0 °F 62% 30.09 in 10.0 mi East 8.1 mph - N/A   Mostly Cloudy
12:03 PM 77.0 °F 62.6 °F 61% 30.07 in 10.0 mi Variable 5.8 mph - N/A   Mostly Cloudy
12:41 PM 78.8 °F 62.6 °F 57% 30.06 in 10.0 mi ESE 8.1 mph 16.1 mph N/A   Mostly Cloudy
12:53 PM 79.0 °F 63.0 °F 58% 30.07 in 10.0 mi SE 10.4 mph 16.1 mph N/A   Mostly Cloudy
1:53 PM 78.1 °F 64.0 °F 62% 30.05 in 10.0 mi Variable 4.6 mph - N/A   Mostly Cloudy
2:53 PM 78.1 °F 64.0 °F 62% 30.04 in 10.0 mi SE 8.1 mph - N/A   Clear
3:53 PM 77.0 °F 64.0 °F 64% 30.04 in 10.0 mi SE 6.9 mph - N/A   Clear
4:53 PM 77.0 °F 62.1 °F 60% 30.05 in 10.0 mi SE 8.1 mph - N/A   Overcast
5:53 PM 73.9 °F 66.0 °F 76% 30.06 in 9.0 mi Variable 4.6 mph - N/A   Overcast
6:45 PM 71.6 °F 64.4 °F 78% 30.05 in 10.0 mi Calm Calm - N/A   Mostly Cloudy
6:53 PM 72.0 °F 64.0 °F 76% 30.07 in 10.0 mi Variable 3.5 mph - N/A   Scattered Clouds
7:16 PM 71.6 °F 62.6 °F 73% 30.06 in 10.0 mi Calm Calm - N/A   Scattered Clouds
7:53 PM 71.1 °F 64.0 °F 78% 30.08 in 10.0 mi Calm Calm - N/A   Overcast
8:53 PM 70.0 °F 64.9 °F 84% 30.09 in 10.0 mi Calm Calm - N/A   Partly Cloudy
9:53 PM 69.1 °F 64.0 °F 84% 30.11 in 10.0 mi Calm Calm - N/A   Unknown
10:53 PM 69.1 °F 63.0 °F 81% 30.10 in 10.0 mi Calm Calm - N/A   Unknown
11:53 PM 69.1 °F 64.0 °F 84% 30.09 in 10.0 mi Calm Calm - N/A   Unknown